This demonstration page uses our WeatherBlox Daily Observations layout. Learn more.

Left ArrowRight Arrow

41.55636, -103.73856

Hourly Observations for July 31, 2021

Temp ( °F °C ) Dew Point ( °F °C ) Humidity (%) Winds ( mph kmh ) Pressure ( in mb ) Visibility ( mi km ) Precip ( " mm )
12:58 am 00:58 Mostly Cloudy 67 19.2 60 15.7 80 80 NNW 7 11 30.14 1021 9 14 N/A
1:58 am 01:58 Mostly Cloudy 64 18 61 15.9 88 88 W 8 13 30.17 1022 10 16 N/A
2:58 am 02:58 Mostly Cloudy 65 18.3 60 15.4 83 83 NW 5 7 30.17 1022 10 16 N/A
3:58 am 03:58 Mostly Cloudy 64 17.6 60 15.5 88 88 SSW 3 6 30.18 1022 10 16 N/A
4:58 am 04:58 Mostly Cloudy 64 17.7 61 16.3 92 92 NW 5 7 30.17 1022 10 16 N/A
5:58 am 05:58 Mostly Cloudy 64 17.7 61 15.9 89 89 N 7 11 30.16 1021 10 16 N/A
6:58 am 06:58 Mostly Cloudy with Light Rain 64 17.7 61 16.3 92 92 NNE 8 13 30.18 1022 9 14 N/A
7:58 am 07:58 Mostly Cloudy 65 18.6 60 15.6 83 83 NNE 6 9 30.20 1023 9 14 N/A
8:58 am 08:58 Mostly Cloudy 67 19.7 58 14.4 72 72 N 5 7 30.22 1023 9 14 0.01 0.25
9:58 am 09:58 Cloudy with Haze 67 19.3 60 15.3 78 78 N 8 13 30.26 1025 5 8 N/A
10:58 am 10:58 Cloudy with Haze 66 19.1 59 15 77 77 NNE 9 15 30.28 1025 4 6 N/A
11:58 am 11:58 Mostly Cloudy with Haze 67 19.6 60 15.4 77 77 N 8 13 30.29 1026 4 6 N/A
12:58 pm 12:58 Mostly Cloudy with Haze 69 20.6 60 15.5 73 73 NNE 7 11 30.27 1025 5 8 N/A
1:58 pm 13:58 Mostly Cloudy with Haze 71 21.7 60 15.5 68 68 NE 8 13 30.27 1025 6 10 N/A
2:58 pm 14:58 Mostly Cloudy with Haze 74 23.4 59 15.1 60 60 E 7 11 30.25 1025 6 10 N/A
3:58 pm 15:58 Mostly Sunny 77 25 54 12 44 44 E 8 13 30.23 1024 8 13 N/A
4:58 pm 16:58 Mostly Sunny 78 25.7 51 10.5 38 38 SE 12 19 30.22 1023 10 16 N/A
5:58 pm 17:58 Sunny 77 25.2 48 8.8 35 35 ESE 10 17 30.21 1023 10 16 N/A
6:58 pm 18:58 Sunny 76 24.3 49 9.6 39 39 SSE 9 15 30.22 1023 10 16 N/A
7:58 pm 19:58 Sunny 71 21.4 53 11.7 54 54 S 10 17 30.24 1024 10 16 N/A
8:58 pm 20:58 Clear 66 18.9 52 10.9 60 60 S 6 9 30.26 1025 10 16 N/A
9:58 pm 21:58 Clear 62 16.6 54 12.3 76 76 SW 5 7 30.29 1026 10 16 N/A
10:58 pm 22:58 Clear 65 18.1 54 12.2 69 69 SSW 5 7 30.28 1025 10 16 N/A
11:58 pm 23:58 Clear 61 16.1 54 12.1 77 77 WSW 7 11 30.29 1026 10 16 N/A

Powered by AerisWeather